Location: *
(41.7492°S, 135.4150°W)
Time: 01:43:12
(UTC+00:00)

ITAMSAT 1 - Pass Details

Date: 03 July 2022
Orbit: 784 x 795 km, 98.9° (Epoch: 09 August)

Event Time Altitude Azimuth Distance (km) Brightness Sun altitude
Rises 15:54:26 0° 18° (NNE) 3,291 11.6 -6.6°
Reaches altitude 10° 15:56:45 10° 19° (NNE) 2,368 10.8 -6.2°
Maximum altitude 16:01:59 82° 105° (ESE) 816 7.9 -5.3°
Drops below altitude 10° 16:07:17 10° 192° (SSW) 2,393 9.8 -4.5°
Sets 16:09:38 0° 192° (SSW) 3,328 10.5 -4.1°
